User: anonymous   Login
Location: Bermeries
(50.2863°N, 3.7551°E)
Time: 19:01:10
(UTC+00:00)
Language:

Cosmos 2322 Rocket - Orbit

View from above orbital plane
View from above orbital plane
View from above satellite
View from above satellite

Ground track
Ground track

The orbit data is extracted from the following two-line orbital elements,

1 23705U 95058B   24199.56755543  .00000217  00000-0  13572-3 0  9990
2 23705  71.0222   0.0819 0014124 308.4511  51.5344 14.15349382482933
Epoch (UTC): 17 July 2024 13:37:16
Eccentricity: 0.0014124
inclination: 71.0222°
perigee height: 831 km
apogee height: 851 km
right ascension of ascending node: 0.0819°
argument of perigee: 308.4511°
revolutions per day: 14.15349382
mean anomaly at epoch: 51.5344°
orbit number at epoch: 48293

The dashed part of the orbit path shows where the satellite is in the earth's shadow,  

DLR